AT160 Weather Reports


time (UTC)temp
F
wind
direction
speed
knots
gust
knots
rain 1hr
in
rain 24hr
in
rain mn
in
humidity
%
barometer
mb
20260902154812 87 158 1.7 7.8 0.00 0.00 0.00 59 1011.6
20260902153312 87 161 0.9 5.2 0.00 0.00 0.00 54 1012.1
20260902150734 88 224 1.7 5.2 0.00 0.00 0.00 51 1012.5
20260902150346 88 141 1.7 8.7 0.00 0.00 0.00 51 1012.5
20260902145306 87 141 0.9 5.2 0.00 0.00 0.00 57 1012.3
20260902143749 86 131 1.7 5.2 0.00 0.00 0.00 56 1012.3
20260902141206 87 168 1.7 6.1 0.00 0.00 0.00 65 1012.6
20260902135710 86 134 1.7 6.1 0.00 0.00 0.00 65 1012.7
20260902134226 87 124 2.6 7.0 0.00 0.00 0.00 66 1012.8
20260902133246 87 157 1.7 7.0 0.00 0.00 0.00 66 1012.9
20260902132725 88 155 2.6 7.0 0.00 0.00 0.00 64 1012.9
20260902131223 87 154 2.6 6.1 0.00 0.00 0.00 64 1013.1
20260902130138 87 124 2.6 7.0 0.00 0.00 0.00 64 1013.4
20260902124629 85 123 3.5 7.0 0.00 0.00 0.00 69 1013.7
20260902123148 85 196 3.5 7.0 0.00 0.00 0.00 67 1013.9
20260902122645 86 112 3.5 6.1 0.00 0.00 0.00 66 1013.9
20260902121646 86 124 2.6 6.1 0.00 0.00 0.00 62 1014.1
20260902120546 88 145 0.9 5.2 0.00 0.00 0.00 60 1014.3
20260902115117 89 158 0.0 4.3 0.00 0.00 0.00 58 1014.4
20260902113728 87 83 0.9 5.2 0.00 0.00 0.00 62 1014.6
20260902112306 86 99 1.7 6.1 0.00 0.00 0.00 64 1014.8
20260902110820 86 107 0.9 4.3 0.00 0.00 0.00 62 1014.9
20260902105307 86 113 0.9 2.6 0.00 0.00 0.00 62 1014.9
20260902103909 87 114 0.0 0.9 0.00 0.00 0.00 60 1015.0
20260902103444 87 121 0.0 0.9 0.00 0.00 0.00 60 1015.0
20260902102843 86 137 0.0 1.7 0.00 0.00 0.00 60 1015.0
20260902102555 86 120 0.0 1.7 0.00 0.00 0.00 60 1015.2
20260902101145 87 72 0.0 1.7 0.00 0.00 0.00 63 1015.3
20260902100814 86 76 0.9 2.6 0.00 0.00 0.00 62 1015.3
20260902095750 86 52 0.0 2.6 0.00 0.00 0.00 61 1015.4
20260902095228 86 38 0.9 2.6 0.00 0.00 0.00 61 1015.4
20260902094552 85 1 1.7 5.2 0.00 0.00 0.00 61 1015.3
20260902093504 85 23 1.7 6.1 0.00 0.00 0.00 61 1015.3
20260902092931 84 0 2.6 6.1 0.00 0.00 0.00 62 1015.3
20260902091740 84 34 2.6 5.2 0.00 0.00 0.00 65 1015.3
20260902090144 84 35 0.9 2.6 0.00 0.00 0.00 67 1015.4
20260902084728 84 357 1.7 5.2 0.00 0.00 0.00 70 1015.4
20260902084232 83 6 4.3 7.0 0.00 0.00 0.00 70 1015.4
20260902082105 82 17 4.3 7.0 0.00 0.00 0.00 77 1015.2
20260902080601 81 21 3.5 7.0 0.00 0.00 0.00 81 1015.0
20260902075112 80 3 4.3 7.0 0.00 0.00 0.00 82 1015.0
20260902074016 80 17 2.6 7.0 0.00 0.00 0.00 83 1015.0
20260902072603 81 21 2.6 7.0 0.00 0.00 0.00 84 1014.9
20260902071035 80 62 2.6 6.1 0.00 0.00 0.00 84 1014.9
20260902065609 80 8 1.7 6.1 0.00 0.00 0.00 85 1014.9
20260902064150 80 17 2.6 6.1 0.00 0.00 0.00 86 1014.9
20260902063130 79 7 0.9 5.2 0.00 0.00 0.00 87 1014.9
20260902062709 78 0 0.0 0.0 0.00 0.00 0.00 89 1014.9
20260902061152 78 20 0.0 0.0 0.00 0.00 0.00 90 1014.9
20260902060158 78 27 0.9 4.3 0.00 0.00 0.00 90 1014.9
20260902055854 77 21 0.9 4.3 0.00 0.00 0.00 89 1014.9
20260902055400 78 30 0.9 4.3 0.00 0.00 0.00 89 1014.9
20260902054456 77 37 0.9 2.6 0.00 0.00 0.00 88 1014.8
20260902053244 76 305 0.9 2.6 0.00 0.00 0.00 87 1014.5
20260902051940 76 311 0.9 5.2 0.00 0.00 0.00 87 1014.5
20260902051425 76 284 0.9 4.3 0.00 0.00 0.00 88 1014.5
20260902050225 76 287 1.7 6.1 0.00 0.00 0.00 89 1014.5
20260902045025 76 306 0.9 4.3 0.00 0.00 0.00 90 1014.4
20260902043810 76 301 0.9 5.2 0.00 0.00 0.00 91 1014.4
20260902043450 76 292 0.9 4.3 0.00 0.00 0.00 91 1014.4
20260902042419 76 284 1.7 5.2 0.00 0.00 0.00 92 1014.4
20260902041937 76 287 0.9 4.3 0.00 0.00 0.00 92 1014.4
20260902040917 75 298 0.9 4.3 0.00 0.00 0.00 93 1014.4
20260902035428 75 280 1.7 3.5 0.00 0.00 0.00 95 1014.3
20260902034335 74 268 1.7 2.6 0.00 0.00 0.00 96 1014.3
20260902033914 74 264 0.9 2.6 0.00 0.00 0.00 96 1014.4
20260902032838 74 264 0.9 2.6 0.00 0.00 0.00 97 1014.4
20260902031327 74 260 0.0 1.7 0.00 0.00 0.00 98 1014.3
20260902030942 74 296 0.0 0.9 0.00 0.00 0.00 98 1014.3
20260902030556 74 298 0.0 0.9 0.00 0.00 0.00 98 1014.3
20260902030129 74 298 0.0 0.0 0.00 0.00 0.00 98 1014.3
20260902025753 74 298 0.0 0.0 0.00 0.00 0.00 98 1014.3
20260902024546 74 298 0.0 0.9 0.00 0.00 0.00 97 1014.3
20260902023704 74 322 0.0 0.9 0.00 0.00 0.00 97 1014.3
20260902022946 74 322 0.0 0.0 0.00 0.00 0.00 97 1014.3
20260902021719 74 322 0.0 0.0 0.00 0.00 0.00 97 1014.3
20260902020432 74 322 0.0 1.7 0.00 0.00 0.00 97 1014.3
20260902020126 74 322 0.9 2.6 0.00 0.00 0.00 97 1014.3
20260902014905 74 322 0.0 2.6 0.00 0.00 0.00 97 1014.3
20260902014600 74 328 0.9 3.5 0.00 0.00 0.00 96 1014.3
20260902013236 75 319 0.9 3.5 0.00 0.00 0.00 96 1014.3
20260902011957 75 319 0.9 4.3 0.00 0.00 0.00 96 1014.2
20260902010740 75 335 1.7 4.3 0.00 0.00 0.00 95 1014.2
20260902010405 76 336 1.7 4.3 0.00 0.00 0.00 95 1014.2
20260902005735 76 352 1.7 0.0 0.00 0.00 0.00 95 1014.1
20260902004959 76 342 0.0 2.6 0.00 0.00 0.00 94 1013.9
20260902004646 76 261 0.0 0.0 0.00 0.00 0.00 94 1013.9
20260902002935 76 261 0.0 0.9 0.00 0.00 0.00 93 1013.8
20260902002651 76 261 0.0 0.9 0.00 0.00 0.00 93 1013.8
20260902002044 76 261 0.0 1.7 0.00 0.00 0.00 93 1013.5
20260902001648 76 256 0.0 1.7 0.00 0.00 0.00 93 1013.5
20260902001133 77 264 0.0 0.0 0.00 0.00 0.00 92 1013.5
20260901235530 77 265 0.0 0.0 0.00 0.00 0.00 93 1013.7
20260901235147 77 265 0.0 0.0 0.00 0.00 0.00 92 1013.6
20260901233936 77 271 0.0 1.7 0.00 0.00 0.00 92 1013.6
20260901232432 77 265 0.0 1.7 0.00 0.00 0.00 91 1013.4
20260901231241 77 256 0.0 1.7 0.00 0.00 0.00 91 1013.5
20260901230945 77 260 0.0 1.7 0.00 0.00 0.00 91 1013.5
20260901225701 77 272 0.0 1.7 0.00 0.00 0.00 91 1013.7
20260901224230 77 270 0.0 0.0 0.00 0.00 0.00 91 1013.6
20260901223814 77 270 0.0 0.9 0.00 0.00 0.00 90 1013.5
20260901223036 77 270 0.0 1.7 0.00 0.00 0.00 90 1013.5
20260901222746 77 270 0.0 2.6 0.00 0.00 0.00 90 1013.5
20260901221523 77 240 0.0 1.7 0.00 0.00 0.00 90 1013.4
20260901220621 78 219 0.0 0.0 0.00 0.00 0.00 89 1013.4
20260901220026 78 219 0.0 0.9 0.00 0.00 0.00 89 1013.4
20260901215719 78 219 0.0 1.7 0.00 0.00 0.00 89 1013.4
20260901214834 78 227 0.0 1.7 0.00 0.00 0.00 89 1013.3
20260901214543 78 227 0.0 1.7 0.00 0.00 0.00 88 1013.3
20260901213322 78 241 0.0 1.7 0.00 0.00 0.00 88 1013.3
20260901211854 78 248 0.0 2.6 0.00 0.00 0.00 88 1013.2
20260901210637 78 239 0.0 1.7 0.00 0.00 0.00 87 1013.1
20260901210331 78 220 0.0 1.7 0.00 0.00 0.00 87 1013.1
20260901205834 78 217 0.0 0.9 0.00 0.00 0.00 87 1013.1
20260901205104 78 219 0.0 0.9 0.00 0.00 0.00 86 1013.1
20260901202409 79 210 0.0 1.7 0.00 0.00 0.00 85 1013.1
20260901202107 79 189 0.0 1.7 0.00 0.00 0.00 85 1012.9
20260901201622 79 209 0.0 1.7 0.00 0.00 0.00 85 1012.9
20260901200921 79 168 0.0 1.7 0.00 0.00 0.00 84 1012.9
20260901195434 79 212 0.0 1.7 0.00 0.00 0.00 83 1012.7
20260901194935 79 192 0.0 2.6 0.00 0.00 0.00 83 1012.7
20260901194419 79 192 0.0 2.6 0.00 0.00 0.00 82 1012.7
20260901192652 80 216 0.0 2.6 0.00 0.00 0.00 82 1012.6
20260901192253 80 230 0.0 2.6 0.00 0.00 0.00 81 1012.6
20260901191441 80 209 0.0 0.9 0.00 0.00 0.00 81 1012.2
20260901191152 80 161 0.0 0.9 0.00 0.00 0.00 80 1012.2
20260901190644 80 199 0.0 1.7 0.00 0.00 0.00 80 1012.2
20260901185658 80 179 0.0 3.5 0.00 0.00 0.00 79 1012.1
20260901182916 80 165 0.0 2.6 0.00 0.00 0.00 79 1011.7
20260901181714 81 171 0.0 1.7 0.00 0.00 0.00 78 1011.7
20260901180208 81 195 0.9 4.3 0.00 0.00 0.00 77 1011.3
20260901175756 81 195 0.0 4.3 0.00 0.00 0.00 77 1011.4
20260901175221 81 200 0.0 5.2 0.00 0.00 0.00 76 1011.4
20260901173527 82 195 0.9 4.3 0.00 0.00 0.00 75 1011.4
20260901171933 82 195 0.9 6.1 0.00 0.00 0.00 73 1011.4
20260901170755 83 133 0.9 2.6 0.00 0.00 0.00 72 1011.4
20260901165918 83 168 0.9 8.7 0.00 0.00 0.00 71 1011.4
20260901165249 83 192 0.9 5.2 0.00 0.00 0.00 71 1011.4
20260901163739 85 155 0.9 6.1 0.00 0.00 0.00 69 1011.4
20260901162607 85 136 0.0 5.2 0.00 0.00 0.00 67 1011.3
20260901162253 86 171 0.0 5.2 0.00 0.00 0.00 67 1011.3
20260901161209 86 186 0.0 4.3 0.00 0.00 0.00 66 1011.2
20260901155733 86 192 0.9 4.3 0.00 0.00 0.00 65 1011.1